Wind_Speed
13 11 11 13 15 17 18 18 17 17 16 17 19 19 21 21 19 19 21 20 20 19 18 23 26 25 21 19 21 11 13 14 16 18 21 23 21 16 18 22 18 10 7 6 11 11 11
14 14 15 15 17 17 17 18 19 19 19 17 18 17 19 21 24 22 20 19 21 21 20 19 21 27 24 27 21 20 15 12 17 21 24 26 22 23 21 18 19 15 8 9 12 15 14
16 16 16 17 18 18 17 18 18 19 19 18 19 19 21 20 22 24 22 19 18 21 21 21 21 20 28 32 26 27 20 16 17 21 27 29 28 25 20 22 20 16 14 14 14 17 15
18 19 18 16 15 15 17 19 21 22 21 20 21 22 25 23 21 21 23 24 22 19 20 22 22 22 23 31 31 31 25 21 21 25 30 35 32 30 27 23 23 19 15 16 17 18 17
22 20 19 20 19 20 20 19 19 20 21 22 22 22 24 24 23 24 25 24 24 23 22 21 22 22 24 23 32 33 32 28 26 31 32 34 33 34 33 29 25 19 17 20 18 18 17
27 28 27 25 25 25 26 26 25 25 24 23 24 24 26 26 26 27 27 25 24 23 25 24 23 24 25 23 33 35 37 34 32 33 34 34 35 30 31 34 28 17 17 19 18 18 17
31 31 31 33 32 32 31 29 30 30 30 29 28 28 28 29 26 28 28 28 28 25 25 26 26 24 28 24 27 35 41 39 37 37 34 32 31 25 21 21 24 20 19 19 21 21 21
37 38 39 38 38 37 36 36 36 34 34 34 34 32 32 31 30 29 28 30 30 27 25 27 28 26 30 29 26 31 40 44 42 40 37 37 30 30 31 28 27 23 26 23 23 21 20
35 37 39 39 40 41 41 42 41 41 40 38 38 36 35 35 33 33 32 29 29 28 27 25 30 31 28 31 26 31 37 45 45 44 42 40 33 37 36 29 28 28 24 29 23 23 22
31 32 34 37 38 39 39 38 38 39 41 42 41 39 40 40 37 36 37 34 33 30 29 24 30 31 33 30 26 33 33 42 48 47 46 45 40 41 39 36 28 24 22 30 31 29 20
39 39 39 39 40 41 42 42 42 42 42 42 43 44 40 40 41 39 37 38 38 34 34 28 30 31 29 32 27 31 35 40 47 50 51 49 43 44 45 38 30 25 25 26 31 30 30
45 45 46 46 47 48 48 49 47 48 48 48 46 46 44 44 44 42 40 39 40 39 36 34 28 30 30 30 30 29 38 38 45 48 53 53 49 51 46 42 40 34 29 28 33 38 42
53 53 53 53 53 54 54 55 54 53 53 52 53 53 51 47 47 46 44 41 42 43 37 37 33 33 33 33 34 29 33 40 42 53 57 57 55 54 50 53 50 44 41 40 38 43 45
56 57 57 60 60 58 58 58 57 55 53 53 54 55 55 52 49 48 48 47 46 43 40 41 40 35 34 33 37 33 32 39 41 52 55 57 60 56 60 57 54 48 45 47 45 41 35
67 67 68 69 70 67 65 62 60 61 60 58 57 57 57 57 52 51 54 53 47 42 43 44 37 36 36 36 36 35 31 36 40 46 58 59 61 61 64 59 56 56 54 45 44 43 39
75 74 74 74 73 69 66 66 66 66 65 64 60 61 61 59 57 53 55 54 50 44 44 46 41 40 39 40 37 36 31 33 40 42 52 58 58 64 65 65 62 60 52 53 52 53 52
77 78 78 77 76 75 75 73 70 70 70 69 67 63 64 63 60 57 59 57 50 48 48 51 47 41 42 43 41 38 37 34 38 40 48 54 59 60 74 73 69 67 66 63 58 55 52
87 85 85 85 83 81 78 74 70 69 66 67 65 64 62 60 58 58 54 54 53 51 52 54 54 45 45 47 47 44 41 38 38 43 46 52 54 60 65 77 74 71 68 63 61 59 58
98 96 93 91 89 85 77 70 68 67 65 60 59 60 61 61 60 59 58 57 55 53 54 55 55 50 45 50 51 49 43 41 42 44 46 46 52 55 60 65 78 79 75 70 70 65 64
97 97 96 90 82 76 70 70 62 59 58 57 56 54 54 56 58 57 57 57 56 55 55 56 55 52 49 52 54 52 46 42 42 43 43 46 51 54 59 64 63 73 78 78 75 76 70
92 89 83 77 71 70 61 53 49 48 50 53 54 55 56 55 54 55 56 55 56 56 57 57 55 53 50 51 52 54 52 46 45 40 42 48 52 52 55 56 59 61 66 75 79 74 74
75 67 61 59 59 58 56 53 55 55 57 56 55 54 50 50 51 51 52 54 57 59 58 59 56 53 52 52 53 55 55 50 44 41 38 44 47 48 51 51 54 59 62 63 71 71 72
53 52 53 53 52 51 52 51 52 51 49 48 51 55 54 49 47 49 51 53 55 58 59 57 55 54 51 51 52 53 55 54 52 48 44 46 46 46 49 41 44 56 55 58 61 65 66
49 48 46 43 42 41 42 44 46 46 44 44 43 43 46 44 45 44 48 52 53 55 55 53 51 51 49 49 50 51 52 52 51 51 50 51 47 45 45 43 42 43 51 55 58 59 62
46 43 41 39 36 35 35 35 35 37 42 44 43 43 43 42 41 45 43 46 49 54 54 49 48 49 49 45 47 48 50 54 49 53 55 55 51 48 47 42 43 39 46 50 57 60 60
41 38 38 36 33 32 32 28 28 31 32 31 35 40 41 40 39 38 41 44 45 45 49 46 45 47 47 45 45 47 50 52 51 52 60 58 56 54 50 42 44 38 41 40 48 57 55
37 37 37 33 32 30 28 27 26 26 24 26 29 31 35 39 35 36 33 36 39 42 41 42 41 47 43 43 44 45 46 45 48 48 54 59 62 58 54 47 41 40 35 29 38 48 50
34 35 34 30 27 26 23 23 22 21 20 22 20 22 24 30 28 33 31 28 27 32 41 37 40 42 44 42 42 42 43 46 46 47 45 47 56 60 56 45 35 37 36 31 31 38 43
32 31 28 25 21 18 16 15 13 14 15 16 16 17 19 22 23 28 27 27 28 37 40 39 41 40 43 42 41 40 42 45 46 42 41 43 47 46 57 49 46 38 34 30 30 30 35
Wind_Direction
318 318 322 326 323 321 316 310 309 311 310 313 315 319 320 326 322 304 287 286 283 283 282 263 253 248 246 239 248 241 225 217 210 197 190 186 196 199 186 179 180 158 157 171 162 142 130
315 307 308 313 313 312 317 318 313 309 312 310 310 308 316 316 317 317 312 293 284 285 281 278 263 248 241 238 244 239 237 228 211 198 196 194 197 196 200 189 188 187 197 191 175 148 135
310 304 308 311 315 311 313 315 313 311 307 301 305 304 304 306 309 311 315 320 303 285 283 280 273 259 243 239 234 232 229 222 214 203 198 199 194 201 202 197 188 189 205 194 178 152 142
310 307 300 299 304 303 309 314 315 311 309 300 297 295 298 302 300 298 303 308 310 306 289 280 277 267 256 240 232 232 227 223 209 206 199 203 205 198 204 207 201 195 209 184 172 155 148
311 311 303 297 293 294 296 299 303 306 305 304 304 302 301 300 300 296 296 298 301 304 298 288 279 275 263 247 235 227 227 221 215 207 209 215 211 210 209 204 207 211 215 176 157 152 154
302 302 303 302 297 292 291 292 293 294 295 295 296 297 299 299 296 293 291 292 293 298 300 294 285 276 266 256 235 226 225 222 217 217 212 217 219 219 220 211 223 221 201 174 164 151 150
297 296 294 293 294 295 294 294 292 292 292 291 288 288 290 291 292 292 289 287 289 290 293 292 287 279 268 259 250 231 224 221 221 222 220 222 223 222 224 215 209 191 185 179 175 170 163
290 291 292 293 289 289 290 288 290 289 287 286 287 287 285 286 285 286 288 285 283 285 285 284 286 282 277 265 256 244 230 224 222 224 226 225 220 220 223 226 215 201 182 186 199 181 180
295 293 291 286 284 284 285 286 285 286 286 285 286 286 283 283 284 280 278 278 281 278 279 278 282 280 276 276 255 251 235 231 222 225 226 231 223 216 219 221 210 205 202 198 208 202 192
298 297 293 290 287 286 284 280 277 277 276 277 277 277 278 279 280 278 277 273 273 271 273 265 272 278 279 274 263 252 240 231 227 222 227 227 222 215 219 221 212 203 204 201 213 223 214
300 299 296 291 288 287 286 284 282 281 278 277 277 277 272 270 271 273 274 272 270 268 272 269 265 268 271 271 265 253 245 233 229 224 225 227 225 222 220 217 216 179 196 204 219 227 226
300 299 299 298 296 292 289 285 282 281 280 279 277 277 275 271 269 268 268 266 266 267 266 267 267 261 260 263 267 258 248 240 227 225 223 225 222 222 226 219 222 220 213 210 216 223 232
299 299 299 297 296 295 294 288 283 279 277 276 277 277 275 269 269 270 264 262 261 260 265 263 262 257 255 259 261 258 252 246 239 225 221 221 219 221 221 214 218 222 222 225 223 226 231
295 295 296 298 297 293 292 288 283 279 277 276 274 274 272 269 267 265 263 260 258 262 259 262 261 257 254 252 259 258 251 246 237 231 223 223 220 220 222 217 222 223 224 227 227 231 236
301 298 296 296 296 294 292 286 282 280 278 276 273 269 266 266 264 263 261 258 262 257 253 254 258 253 247 244 248 254 251 245 240 233 229 222 220 220 221 223 220 222 227 227 231 241 245
301 298 297 296 296 294 291 288 284 281 280 277 273 268 264 263 261 257 256 258 254 251 249 252 252 248 246 243 241 247 248 248 242 232 228 227 222 217 220 222 222 227 229 228 228 232 237
298 297 296 295 294 293 290 288 283 281 280 277 272 264 260 259 256 255 255 255 249 247 246 247 249 242 239 238 239 238 244 245 239 233 227 228 225 217 218 222 223 224 225 224 229 235 240
304 301 300 299 297 295 293 290 284 282 277 272 269 260 258 256 254 254 252 251 248 243 243 244 246 242 234 234 235 234 234 232 234 232 229 226 228 222 219 221 224 225 228 233 236 237 238
302 301 299 299 298 297 295 292 286 281 278 268 264 260 255 253 253 252 251 248 246 243 243 244 245 244 234 228 233 233 233 229 231 233 230 223 225 226 222 221 223 225 227 230 231 235 240
301 300 299 299 298 297 293 290 284 276 269 264 259 258 257 254 252 250 248 245 242 240 239 241 242 239 234 228 229 231 233 223 229 232 230 229 228 230 229 227 229 228 227 229 229 232 238
303 303 302 300 296 292 283 269 260 259 260 255 254 251 250 249 246 245 244 240 238 235 233 237 238 238 235 230 226 230 230 223 222 227 231 233 233 234 235 230 229 233 231 231 233 234 237
305 304 298 290 284 278 271 264 260 258 255 251 248 243 237 238 237 234 232 231 229 230 229 233 234 232 229 227 224 223 224 221 222 223 230 237 240 240 241 239 234 233 234 231 231 235 237
308 300 295 291 286 281 276 273 268 262 260 260 252 246 241 232 232 231 228 227 227 226 227 231 230 231 228 226 224 221 222 222 217 216 222 234 238 242 244 247 247 238 232 232 232 232 234
306 304 303 300 294 288 282 276 272 267 261 259 256 253 248 239 236 229 227 225 225 225 223 226 227 228 225 225 224 221 220 220 219 219 224 228 231 239 243 242 242 243 233 235 233 233 231
305 303 302 298 298 297 290 283 276 271 267 260 255 250 246 241 243 238 236 227 224 225 219 218 221 223 223 221 222 219 218 218 217 216 223 234 236 236 242 247 247 242 232 229 228 229 230
307 304 303 300 298 294 290 288 281 272 266 263 262 257 246 237 240 238 241 238 230 226 222 214 217 216 221 218 216 218 219 217 216 217 221 225 233 236 239 244 241 242 235 229 228 231 228
304 305 306 305 299 295 290 284 278 273 269 262 257 256 253 241 238 238 234 235 231 228 219 211 209 211 214 214 213 217 219 217 218 221 223 227 232 236 237 241 234 242 229 226 223 229 228
304 305 308 306 301 297 294 285 274 269 267 263 252 248 244 242 237 232 227 232 229 229 215 204 200 205 209 209 211 213 215 215 218 220 225 230 234 239 238 236 224 227 227 229 227 226 228
302 307 309 307 302 299 299 291 271 266 251 243 234 235 228 214 209 216 216 218 214 215 210 196 193 198 202 206 207 211 213 216 219 223 223 230 233 233 240 224 227 218 223 228 222 224 225
Height
5892 5891 5890 5889 5887 5886 5885 5884 5883 5882 5881 5880 5878 5877 5876 5875 5874 5873 5873 5873 5873 5873 5874 5874 5877 5879 5882 5884 5883 5886 5887 5889 5891 5893 5896 5899 5901 5904 5907 5908 5909 5910 5911 5913 5913 5912 5912
5890 5889 5888 5886 5885 5884 5882 5881 5879 5878 5877 5877 5876 5875 5873 5872 5871 5870 5870 5871 5870 5870 5870 5870 5871 5873 5877 5877 5881 5881 5884 5886 5887 5890 5893 5896 5899 5902 5904 5906 5908 5910 5912 5913 5913 5912 5913
5888 5887 5885 5884 5882 5880 5879 5878 5877 5876 5874 5873 5872 5871 5870 5869 5868 5866 5866 5868 5866 5866 5866 5866 5866 5867 5870 5870 5875 5876 5880 5883 5885 5887 5890 5893 5896 5899 5903 5904 5907 5909 5911 5912 5912 5912 5913
5883 5881 5881 5880 5878 5877 5876 5874 5872 5871 5870 5869 5868 5868 5866 5865 5864 5862 5862 5863 5863 5862 5861 5861 5861 5863 5863 5867 5869 5871 5876 5878 5881 5883 5886 5888 5892 5896 5898 5903 5905 5909 5910 5911 5912 5912 5913
5880 5878 5877 5875 5874 5872 5871 5870 5869 5867 5866 5864 5863 5863 5862 5861 5860 5858 5857 5858 5858 5858 5858 5857 5857 5858 5858 5861 5863 5867 5870 5873 5875 5877 5878 5883 5886 5892 5896 5900 5903 5907 5909 5910 5912 5912 5912
5875 5873 5872 5871 5869 5867 5866 5865 5864 5862 5861 5860 5859 5858 5856 5856 5855 5854 5852 5852 5852 5853 5852 5853 5853 5854 5853 5855 5856 5859 5863 5867 5870 5871 5875 5877 5881 5887 5891 5897 5902 5907 5908 5909 5911 5912 5911
5869 5867 5865 5864 5862 5861 5860 5858 5857 5856 5855 5854 5852 5852 5850 5849 5849 5848 5847 5847 5848 5849 5847 5847 5848 5848 5846 5849 5850 5853 5855 5860 5863 5866 5870 5874 5878 5881 5889 5896 5903 5905 5906 5909 5910 5910 5909
5862 5860 5859 5857 5855 5854 5853 5851 5850 5848 5847 5846 5845 5844 5843 5842 5841 5841 5841 5840 5840 5841 5842 5840 5840 5843 5840 5843 5846 5846 5849 5852 5856 5861 5865 5868 5872 5881 5886 5890 5896 5901 5902 5905 5907 5907 5908
5854 5853 5852 5850 5848 5847 5845 5844 5842 5841 5839 5838 5836 5836 5835 5833 5833 5833 5832 5833 5832 5832 5834 5832 5832 5835 5836 5836 5839 5839 5843 5846 5850 5854 5859 5863 5872 5875 5878 5883 5890 5895 5899 5901 5906 5905 5904
5846 5844 5841 5840 5838 5837 5836 5834 5832 5831 5831 5830 5827 5826 5826 5824 5826 5823 5824 5824 5823 5824 5824 5828 5825 5826 5827 5829 5833 5829 5834 5837 5842 5847 5851 5856 5865 5867 5871 5875 5883 5891 5898 5900 5900 5902 5905
5838 5835 5831 5829 5827 5825 5823 5821 5820 5818 5816 5815 5816 5816 5817 5814 5814 5814 5815 5815 5815 5816 5815 5816 5817 5817 5820 5821 5825 5824 5825 5826 5832 5839 5842 5849 5857 5860 5862 5870 5878 5887 5891 5895 5896 5897 5897
5828 5824 5821 5818 5816 5814 5811 5808 5807 5806 5804 5802 5802 5801 5804 5804 5801 5801 5803 5804 5805 5807 5806 5805 5807 5808 5810 5812 5814 5815 5816 5820 5824 5829 5832 5839 5850 5851 5859 5867 5871 5877 5883 5886 5887 5888 5885
5815 5811 5808 5806 5802 5799 5797 5795 5792 5791 5790 5788 5787 5787 5788 5789 5790 5787 5789 5791 5793 5793 5798 5795 5797 5797 5800 5802 5803 5806 5808 5811 5815 5816 5819 5827 5836 5845 5851 5857 5862 5866 5871 5875 5877 5874 5878
5801 5795 5791 5788 5785 5783 5780 5778 5776 5774 5773 5772 5771 5771 5771 5773 5774 5772 5773 5777 5777 5782 5786 5785 5786 5788 5789 5792 5792 5795 5799 5801 5805 5808 5812 5819 5826 5832 5838 5845 5851 5856 5863 5863 5867 5870 5876
5781 5777 5772 5768 5764 5760 5758 5757 5756 5756 5755 5754 5753 5752 5753 5755 5755 5757 5757 5757 5764 5769 5773 5771 5774 5776 5777 5780 5784 5785 5790 5793 5795 5800 5804 5807 5814 5827 5832 5840 5845 5849 5850 5864 5866 5866 5870
5757 5752 5748 5744 5741 5738 5736 5734 5734 5733 5734 5733 5734 5734 5734 5735 5737 5738 5737 5742 5746 5754 5757 5757 5760 5762 5765 5769 5773 5775 5779 5784 5786 5790 5795 5799 5806 5817 5826 5832 5837 5840 5852 5853 5853 5856 5858
5737 5730 5724 5720 5716 5713 5711 5708 5707 5707 5707 5707 5709 5709 5712 5712 5714 5717 5717 5724 5732 5736 5740 5740 5745 5749 5752 5756 5760 5764 5768 5773 5777 5781 5785 5790 5796 5807 5812 5815 5825 5829 5834 5839 5847 5849 5852
5709 5703 5698 5694 5688 5685 5682 5679 5678 5679 5681 5677 5681 5684 5688 5691 5695 5696 5701 5708 5714 5720 5721 5723 5728 5734 5740 5744 5748 5751 5757 5761 5767 5772 5775 5780 5785 5791 5800 5808 5815 5821 5829 5836 5837 5841 5843
5680 5673 5668 5662 5658 5654 5651 5650 5650 5650 5654 5653 5654 5658 5662 5665 5670 5676 5682 5688 5693 5702 5705 5709 5712 5720 5727 5733 5735 5740 5746 5753 5756 5762 5767 5771 5772 5780 5788 5793 5797 5804 5815 5821 5828 5835 5831
5650 5644 5638 5632 5628 5625 5623 5622 5623 5623 5625 5627 5630 5632 5635 5639 5646 5653 5660 5668 5675 5681 5687 5691 5696 5703 5710 5718 5723 5730 5736 5746 5748 5754 5759 5761 5763 5769 5777 5789 5796 5794 5800 5807 5814 5817 5825
5623 5616 5610 5603 5597 5595 5591 5590 5590 5589 5591 5597 5601 5607 5612 5617 5621 5629 5637 5646 5653 5662 5669 5676 5680 5688 5697 5705 5713 5718 5727 5735 5740 5744 5748 5751 5757 5762 5768 5778 5782 5786 5791 5797 5800 5808 5811
5599 5592 5586 5580 5575 5572 5571 5569 5568 5571 5571 5573 5577 5580 5588 5596 5600 5607 5614 5625 5632 5640 5652 5658 5665 5672 5681 5690 5700 5707 5716 5725 5731 5736 5740 5744 5750 5755 5759 5766 5771 5775 5780 5785 5791 5798 5802
5578 5570 5565 5560 5557 5554 5552 5552 5549 5552 5555 5555 5560 5564 5569 5578 5581 5588 5596 5604 5613 5622 5633 5640 5648 5658 5670 5677 5685 5694 5702 5713 5718 5724 5730 5736 5742 5746 5749 5758 5761 5759 5768 5775 5783 5788 5795
5563 5556 5550 5545 5541 5538 5536 5536 5536 5537 5539 5542 5544 5549 5554 5563 5567 5572 5580 5587 5595 5603 5616 5626 5635 5645 5658 5664 5671 5680 5690 5700 5708 5717 5722 5726 5732 5737 5742 5747 5744 5756 5764 5767 5773 5781 5785
5552 5545 5539 5535 5531 5527 5525 5523 5523 5522 5524 5529 5531 5535 5540 5549 5555 5561 5566 5573 5581 5589 5600 5612 5623 5632 5644 5654 5661 5669 5677 5685 5697 5707 5712 5717 5724 5729 5734 5737 5744 5747 5752 5757 5759 5767 5775
5540 5534 5529 5524 5520 5518 5515 5514 5512 5512 5513 5517 5519 5523 5529 5537 5545 5550 5556 5564 5571 5578 5588 5601 5611 5622 5633 5643 5650 5655 5665 5677 5686 5695 5702 5708 5714 5722 5727 5730 5735 5744 5747 5750 5755 5756 5767
5528 5524 5519 5514 5511 5508 5506 5504 5504 5504 5505 5507 5510 5513 5519 5526 5535 5539 5548 5553 5562 5571 5581 5591 5601 5613 5623 5634 5641 5649 5658 5669 5677 5686 5693 5699 5706 5712 5717 5721 5727 5734 5740 5745 5746 5755 5761
5518 5515 5510 5505 5502 5499 5497 5496 5495 5496 5497 5499 5503 5506 5511 5518 5524 5530 5538 5548 5555 5563 5573 5583 5595 5606 5617 5626 5634 5641 5649 5659 5668 5676 5684 5692 5699 5703 5710 5712 5718 5727 5733 5737 5744 5748 5754
5509 5505 5501 5497 5495 5493 5491 5489 5489 5490 5491 5494 5497 5500 5504 5509 5516 5523 5532 5541 5546 5554 5566 5575 5589 5599 5609 5617 5626 5635 5642 5651 5659 5668 5677 5683 5688 5693 5695 5695 5712 5719 5726 5731 5737 5743 5748